Torna al catalogo

ARIANE 5 DEB

SPELTRA

AttivoHEO
NORAD 25026·DEBRIS·🇫🇷 France

Lanciato Oct 30, 1997 da Guiana Space Centre

Loading…

Prossimi Passaggi (prossime 24 ore)

TLE

AggiornatoSource: Space-Track

Epoca: Sep 14, 2026, 22:15 UTC

1 25026U 97066D   26257.92737410 -.00000106  00000-0 -82239-5 0  9996
2 25026   7.8187 306.3208 6527760 217.7167  56.1064  3.08322885325229

Traccia ARIANE 5 DEB in tempo reale con AllMySat

Download on the App Store